[[{"header":{"parameterUnit":"m.s-1","parameterCategory":1,"la1":30.2991,"la2":30.254,"lo1":-89.0895,"lo2":-89.0444,"dy":0.0017,"dx":0.0017,"nx":28,"ny":28,"refTime":"2024-10-16T09:00:00:Z","depth":0,"parameterNumber":2,"parameterNumberName":"U-component_of_WINDS"},"data":[0,0,0,0,0,0,0,0,0,0,0,0,0,0,0,0,0,0,0,0,0,0,0,0,0,0,0,0,0,0,0,0,0,0,0,0,0,0,0,0,0,0,0,0,0,0,0,0,0,0,0,0,0,0,0,0,0,0,-4.3155,-4.3156,0,-4.3213,-4.3213,-4.3214,-4.3143,-4.3141,-4.3138,-4.3136,-4.3193,-4.3197,-4.3201,0,0,0,0,0,0,0,0,0,0,0,0,0,-4.2982,-4.2986,-4.3155,-4.3156,-4.3156,-4.3213,-4.3213,-4.3214,-4.3144,-4.3141,-4.3137,-4.3134,-4.3192,-4.3196,-4.3201,0,0,0,0,0,0,0,0,0,0,0,0,0,-4.305,-4.2987,-4.3155,-4.3128,-4.3126,-4.3212,-4.3213,-4.3214,-4.3144,-4.314,-4.3137,-4.3133,-4.319,-4.3196,-4.3202,-4.3316,0,0,-4.322,-4.3222,0,0,0,0,0,0,0,0,-4.3046,-4.3057,-4.3131,-4.313,-4.3128,-4.3167,-4.3173,-4.3248,-4.3145,-4.3138,-4.3136,-4.3131,-4.3187,-4.3193,-4.3213,-4.3319,-4.3321,-4.322,-4.3224,-4.3226,-4.3228,0,0,0,0,0,0,0,-4.3042,-4.3054,-4.3178,-4.3133,-4.3131,-4.3113,-4.3118,-4.3187,-4.3184,-4.3138,-4.3133,-4.3141,-4.3186,-4.3207,-4.3213,-4.3322,-4.322,-4.3225,-4.3229,-4.3231,-4.3526,-4.353,0,0,0,0,0,0,-4.304,-4.305,-4.3176,-4.3179,-4.3077,-4.3119,-4.3125,-4.3158,-4.3183,-4.3183,-4.3144,-4.3137,-4.3199,-4.3207,-4.3215,-4.3351,-4.3226,-4.3232,-4.3235,-4.3521,-4.3527,-4.3531,0,0,0,0,0,0,-4.3037,-4.3052,-4.3174,-4.3114,-4.3128,-4.3126,-4.3164,-4.3162,-4.3183,-4.3187,-4.3186,-4.3167,-4.3196,-4.3207,-4.3292,-4.3352,-4.3235,-4.324,-4.3516,-4.3523,-4.3529,-4.3625,0,0,0,0,0,0,-4.3032,-4.3052,-4.3096,-4.3115,-4.3131,-4.325,-4.3168,-4.3165,-4.3193,-4.3185,-4.3208,-4.3208,-4.3194,-4.3283,-4.3298,-4.3358,-4.3245,-4.3511,-4.3519,-4.3527,-4.3616,-4.3634,-4.3649,0,0,0,0,0,-4.3026,-4.312,-4.3098,-4.3114,-4.3186,-4.3254,-4.3263,-4.3245,-4.3199,-4.3243,-4.3245,-4.3207,-4.3343,-4.3293,-4.3308,-4.3372,-4.3507,-4.3517,-4.3526,-4.3609,-4.363,-4.3648,0,0,0,0,0,0,-4.3107,-4.3122,-4.3098,-4.3201,-4.3227,-4.3242,-4.3297,-4.3268,-4.3307,-4.3298,-4.3273,-4.3279,-4.337,-4.3379,-4.3322,-4.3484,-4.3417,-4.3431,-4.3475,-4.3495,-4.3511,-4.3508,-4.325,0,0,0,0,0,-4.3137,-4.3191,-4.3201,-4.329,-4.3305,-4.3299,-4.3328,-4.3312,-4.3337,-4.3348,-4.3356,-4.3382,-4.3431,-4.3463,-4.3508,-4.3617,-4.3621,-4.3668,-4.3684,-4.3697,-4.3709,-4.3768,-4.3789,-4.3563,-4.3563,-4.3562,0,0,-4.3199,-4.3214,-4.3249,-4.3307,-4.3325,-4.3382,-4.3309,-4.3371,-4.3413,-4.3357,-4.3438,-4.3446,-4.3473,-4.357,-4.3614,-4.3581,-4.3772,-4.3709,-4.372,-4.3725,-4.378,-4.3801,-4.382,-4.3569,-4.3568,-4.3567,0,0,-4.3341,-4.3358,-4.3434,-4.3454,-4.3483,-4.3478,-4.3497,-4.3516,-4.3519,-4.3601,-4.356,-4.3608,-4.3692,-4.3713,-4.3735,-4.3885,-4.3852,-4.39,-4.3985,-4.4042,-4.406,-4.4076,-4.413,-4.415,-4.3912,-4.3912,-4.3912,0,-4.3415,-4.3499,-4.3477,-4.3544,-4.357,-4.3522,-4.36,-4.3619,-4.3661,-4.368,-4.3643,-4.3747,-4.3762,-4.3864,-4.3901,-4.3919,-4.394,-4.3898,-4.4059,-4.4075,-4.4089,-4.4141,-4.4161,-4.3918,-4.3917,-4.3916,-4.3916,0,-4.3588,-4.3647,-4.3705,-4.3748,-4.378,-4.3852,-4.3841,-4.3876,-4.3857,-4.3856,-4.394,-4.3956,-4.4003,-4.4025,-4.4007,-4.4125,-4.4104,-4.4063,-4.3996,-4.4117,-4.4165,-4.4184,-4.3926,-4.3924,-4.3922,-4.3921,0,0,-4.3784,-4.3813,-4.3835,-4.3854,-4.3882,-4.3927,-4.3995,-4.4042,-4.4074,-4.4103,-4.4161,-4.4232,-4.4195,-4.422,-4.4203,-4.4253,-4.4372,-4.4206,-4.4206,-4.4237,-4.4504,-4.4535,-4.4558,-4.4349,-4.4353,-4.4356,-4.4502,0,-4.3927,-4.4048,-4.403,-4.4146,-4.42,-4.4155,-4.4215,-4.4238,-4.4239,-4.4284,-4.4284,-4.4336,-4.4283,-4.4297,-4.4345,-4.4347,-4.4425,-4.4336,-4.4402,-4.4405,-4.4399,-4.4583,-4.4617,-4.4754,-4.452,-4.4523,-4.4526,0,-4.4111,-4.4149,-4.427,-4.429,-4.4312,-4.4366,-4.4408,-4.4452,-4.4477,-4.4473,-4.4501,-4.4475,-4.4543,-4.4474,-4.4568,-4.4508,-4.4534,-4.4539,-4.4544,-4.455,-4.4474,-4.4596,-4.4797,-4.4818,-4.4555,-4.4552,-4.455,0,-4.4243,-4.4324,-4.4407,-4.4424,-4.4449,-4.4488,-4.45,-4.4521,-4.4551,-4.4586,-4.4605,-4.4648,-4.4672,-4.4706,-4.4692,-4.4643,-4.4788,-4.4718,-4.4788,-4.4788,-4.4822,-4.482,-4.5031,-4.4836,-4.4836,-4.4836,-4.4835,0,-4.4406,-4.4482,-4.4467,-4.4518,-4.4602,-4.4581,-4.4664,-4.467,-4.469,-4.4741,-4.4704,-4.4752,-4.473,-4.4778,-4.4767,-4.4846,-4.4857,-4.4856,-4.4853,-4.4861,-4.4861,-4.4878,-4.4869,-4.4841,-4.484,-4.4839,-4.4838,0,-4.4568,-4.4561,-4.4649,-4.4665,-4.4671,-4.4732,-4.4745,-4.4793,-4.4791,-4.4856,-4.487,-4.4866,-4.492,-4.4909,-4.4967,-4.496,-4.506,-4.5044,-4.5053,-4.5049,-4.512,-4.5114,-4.5351,-4.5381,-4.5166,-4.5168,-4.5169,0,-4.4674,-4.4731,-4.4754,-4.4786,-4.4801,-4.4853,-4.4883,-4.4863,-4.4896,-4.4929,-4.4973,-4.5023,-4.5062,-4.515,-4.5152,-4.5196,-4.5182,-4.5261,-4.5188,-4.5194,-4.5184,-4.5181,-4.5187,-4.5276,-4.5279,-4.5281,-4.5282,0,-4.4861,-4.4855,-4.49,-4.4944,-4.4981,-4.5014,-4.5043,-4.5072,-4.5054,-4.5093,-4.5147,-4.5178,-4.5238,-4.5288,-4.533,-4.5341,-4.531,-4.5305,-4.5324,-4.5333,-4.5336,-4.5336,-4.5093,-4.53,-4.5298,-4.5297,-4.5296,-4.5296,-4.4999,-4.5049,-4.5072,-4.5124,-4.5144,-4.5172,-4.5218,-4.5222,-4.5267,-4.5315,-4.53,-4.5363,-4.5385,-4.5438,-4.5454,-4.5502,-4.5472,-4.5499,-4.5506,-4.5513,-4.5522,-4.5327,-4.5509,-4.5508,-4.5508,-4.5507,-4.5507,0,-4.5186,-4.5199,-4.5246,-4.5289,-4.5329,-4.5296,-4.5327,-4.5363,-4.5418,-4.5443,-4.5482,-4.5545,-4.5593,-4.5599,-4.5645,-4.5682,-4.5669,-4.5695,-4.5692,-4.5696,-4.5546,-4.5526,-4.5705,-4.5705,-4.5705,-4.5705,-4.5705,-4.5705,-4.5288,-4.537,-4.5366,-4.5458,-4.547,-4.5531,-4.5552,-4.5578,-4.5597,-4.5669,-4.571,-4.5713,-4.573,-4.5776,-4.5819,-4.5819,-4.5838,-4.5871,-4.5865,-4.5726,-4.5706,-4.5687,-4.5668,-4.5875,-4.5875,-4.6011,-4.6012,-4.6013]},{"header":{"parameterUnit":"m.s-1","parameterCategory":1,"la1":30.2991,"la2":30.254,"lo1":-89.0895,"lo2":-89.0444,"dy":0.0017,"dx":0.0017,"nx":28,"ny":28,"refTime":"2024-10-16T09:00:00:Z","depth":0,"parameterNumber":3,"parameterNumberName":"V-component_of_WINDS"},"data":[0,0,0,0,0,0,0,0,0,0,0,0,0,0,0,0,0,0,0,0,0,0,0,0,0,0,0,0,0,0,0,0,0,0,0,0,0,0,0,0,0,0,0,0,0,0,0,0,0,0,0,0,0,0,0,0,0,0,-7.7445,-7.7445,0,-7.7509,-7.751,-7.751,-7.743,-7.7427,-7.7424,-7.7421,-7.7481,-7.7485,-7.749,0,0,0,0,0,0,0,0,0,0,0,0,0,-7.7246,-7.725,-7.7445,-7.7445,-7.7446,-7.7509,-7.751,-7.7511,-7.743,-7.7427,-7.7423,-7.742,-7.748,-7.7485,-7.749,0,0,0,0,0,0,0,0,0,0,0,0,0,-7.7323,-7.7252,-7.7444,-7.7414,-7.7412,-7.7509,-7.751,-7.7511,-7.7431,-7.7427,-7.7422,-7.7418,-7.7478,-7.7484,-7.7491,-7.7618,0,0,-7.751,-7.7513,0,0,0,0,0,0,0,0,-7.7319,-7.7331,-7.7418,-7.7416,-7.7414,-7.7457,-7.7461,-7.7547,-7.7432,-7.7424,-7.7421,-7.7416,-7.7476,-7.7483,-7.7504,-7.7621,-7.7624,-7.7511,-7.7515,-7.7518,-7.752,0,0,0,0,0,0,0,-7.7314,-7.7328,-7.747,-7.7419,-7.7417,-7.7395,-7.7401,-7.7477,-7.7474,-7.7424,-7.7419,-7.7428,-7.7474,-7.7498,-7.7505,-7.7625,-7.7511,-7.7517,-7.7521,-7.7523,-7.7849,-7.7854,0,0,0,0,0,0,-7.7313,-7.7324,-7.7468,-7.7472,-7.7355,-7.7402,-7.7409,-7.7448,-7.7473,-7.7472,-7.7431,-7.7424,-7.7489,-7.7497,-7.7507,-7.7658,-7.7518,-7.7524,-7.7527,-7.7844,-7.785,-7.7855,0,0,0,0,0,0,-7.7309,-7.7327,-7.7465,-7.7396,-7.7412,-7.741,-7.7454,-7.7451,-7.7475,-7.7478,-7.7476,-7.7457,-7.7486,-7.7498,-7.7592,-7.7659,-7.7527,-7.7533,-7.7839,-7.7846,-7.7853,-7.7962,0,0,0,0,0,0,-7.7304,-7.7326,-7.7376,-7.7398,-7.7416,-7.7551,-7.7458,-7.7456,-7.7487,-7.7478,-7.7501,-7.7501,-7.7483,-7.7582,-7.7598,-7.7665,-7.7538,-7.7833,-7.7842,-7.7851,-7.7952,-7.7972,-7.7988,0,0,0,0,0,-7.7297,-7.7403,-7.7379,-7.7397,-7.7479,-7.7555,-7.7565,-7.7545,-7.7493,-7.7542,-7.7544,-7.75,-7.7649,-7.7593,-7.761,-7.768,-7.7828,-7.7839,-7.785,-7.7944,-7.7968,-7.7988,0,0,0,0,0,0,-7.7386,-7.7405,-7.7379,-7.7495,-7.7525,-7.7542,-7.7603,-7.7571,-7.7614,-7.7603,-7.7574,-7.758,-7.768,-7.7689,-7.7626,-7.7805,-7.773,-7.7744,-7.7795,-7.7818,-7.7836,-7.7832,-7.7543,0,0,0,0,0,-7.742,-7.7482,-7.7494,-7.7596,-7.7612,-7.7606,-7.7638,-7.762,-7.7648,-7.7659,-7.7668,-7.7695,-7.7748,-7.7783,-7.7832,-7.7953,-7.7956,-7.8009,-7.8027,-7.8042,-7.8055,-7.8119,-7.8143,-7.7891,-7.7891,-7.789,0,0,-7.7489,-7.7507,-7.7548,-7.7614,-7.7635,-7.7698,-7.7616,-7.7687,-7.7733,-7.7669,-7.7759,-7.7767,-7.7795,-7.7903,-7.7951,-7.7914,-7.8126,-7.8056,-7.8068,-7.8073,-7.8133,-7.8157,-7.8178,-7.7898,-7.7897,-7.7896,0,0,-7.7647,-7.7668,-7.7755,-7.7778,-7.7811,-7.7806,-7.7827,-7.7849,-7.7852,-7.7943,-7.7896,-7.7949,-7.8041,-7.8063,-7.8087,-7.8254,-7.8215,-7.8271,-7.8366,-7.8428,-7.8448,-7.8466,-7.8525,-7.8547,-7.8283,-7.8284,-7.8284,0,-7.7729,-7.7825,-7.7803,-7.7878,-7.7907,-7.7855,-7.7941,-7.7964,-7.801,-7.8031,-7.7989,-7.8103,-7.8119,-7.8231,-7.8272,-7.8293,-7.8315,-7.8268,-7.8447,-7.8465,-7.8481,-7.8537,-7.8559,-7.829,-7.829,-7.8289,-7.8288,0,-7.7923,-7.799,-7.8056,-7.8105,-7.8142,-7.8222,-7.821,-7.825,-7.8229,-7.8228,-7.832,-7.8336,-7.8388,-7.8413,-7.8392,-7.8522,-7.8498,-7.8452,-7.8377,-7.8512,-7.8564,-7.8585,-7.83,-7.8297,-7.8295,-7.8294,0,0,-7.8139,-7.8176,-7.8201,-7.8222,-7.8255,-7.8305,-7.8382,-7.8434,-7.8469,-7.8502,-7.8565,-7.8644,-7.8602,-7.8629,-7.8609,-7.8665,-7.8796,-7.8612,-7.8612,-7.8645,-7.894,-7.8975,-7.9,-7.877,-7.8774,-7.8778,-7.8938,0,-7.8298,-7.8435,-7.8417,-7.8547,-7.8608,-7.8559,-7.8625,-7.8652,-7.8653,-7.8703,-7.8702,-7.8759,-7.87,-7.8715,-7.8768,-7.8769,-7.8855,-7.8757,-7.8827,-7.883,-7.8822,-7.9028,-7.9064,-7.9215,-7.8958,-7.8962,-7.8964,0,-7.8502,-7.8546,-7.8683,-7.8706,-7.8731,-7.8792,-7.8838,-7.8887,-7.8915,-7.8912,-7.8942,-7.8913,-7.8988,-7.8911,-7.9013,-7.8948,-7.8975,-7.898,-7.8985,-7.8991,-7.8905,-7.9039,-7.9262,-7.9285,-7.8996,-7.8994,-7.8991,0,-7.8647,-7.8739,-7.8833,-7.8853,-7.8882,-7.8926,-7.894,-7.8964,-7.8997,-7.9036,-7.9057,-7.9104,-7.913,-7.9166,-7.915,-7.9095,-7.9255,-7.9177,-7.9253,-7.9254,-7.9289,-7.9287,-7.952,-7.9307,-7.9306,-7.9306,-7.9305,0,-7.8826,-7.8912,-7.8898,-7.8956,-7.905,-7.9028,-7.912,-7.9127,-7.9149,-7.9206,-7.9165,-7.9219,-7.9194,-7.9245,-7.9232,-7.9319,-7.9331,-7.9329,-7.9324,-7.9333,-7.9333,-7.935,-7.9339,-7.9312,-7.9311,-7.9309,-7.9308,0,-7.9003,-7.8998,-7.9097,-7.9118,-7.9125,-7.9193,-7.9209,-7.9262,-7.926,-7.9332,-7.9348,-7.9344,-7.9402,-7.939,-7.9453,-7.9444,-7.9553,-7.9535,-7.9544,-7.954,-7.9617,-7.961,-7.9869,-7.9902,-7.9668,-7.967,-7.9672,0,-7.9119,-7.9184,-7.9212,-7.9248,-7.9266,-7.9325,-7.9358,-7.9338,-7.9375,-7.9412,-7.946,-7.9515,-7.9558,-7.9653,-7.9655,-7.9703,-7.9686,-7.9773,-7.9693,-7.9699,-7.9687,-7.9683,-7.9689,-7.9789,-7.9792,-7.9794,-7.9796,0,-7.9323,-7.9318,-7.9369,-7.942,-7.9462,-7.95,-7.9534,-7.9565,-7.9548,-7.959,-7.9651,-7.9685,-7.975,-7.9805,-7.985,-7.9861,-7.9826,-7.9822,-7.9842,-7.9851,-7.9853,-7.9853,-7.9588,-7.9816,-7.9814,-7.9812,-7.9811,-7.981,-7.9473,-7.9528,-7.9557,-7.9616,-7.964,-7.9673,-7.9724,-7.9729,-7.978,-7.9833,-7.9817,-7.9886,-7.9911,-7.9968,-7.9985,-8.0037,-8.0004,-8.0033,-8.004,-8.0048,-8.0057,-7.9846,-8.0045,-8.0044,-8.0043,-8.0043,-8.0042,0,-7.9675,-7.9692,-7.9746,-7.9796,-7.9842,-7.9807,-7.9842,-7.9882,-7.9944,-7.9971,-8.0015,-8.0084,-8.0137,-8.0143,-8.0193,-8.0233,-8.0218,-8.0247,-8.0243,-8.0247,-8.0084,-8.0062,-8.0258,-8.0258,-8.0258,-8.0258,-8.0258,-8.0258,-7.9786,-7.9879,-7.9876,-7.9979,-7.9994,-8.0063,-8.0087,-8.0116,-8.0138,-8.0218,-8.0262,-8.0267,-8.0285,-8.0336,-8.0382,-8.0382,-8.0402,-8.0438,-8.0432,-8.028,-8.0258,-8.0238,-8.0216,-8.0442,-8.0442,-8.059,-8.0591,-8.0592]}]]